Погода в Мадене

Турция     38°23′31″N   39°40′18″E
темп.,
°C
ветер,
м/с
пор.,
м/с
влажн.,
%
обл.,
%
осадки,
мм/ч
давл.,
гПа
погр.,
м
8 мая, сб
сб800:00+15ссз224384 0.0 101412
03:00+13ссз33469 0.0 101421
06:00+13сз335077 0.0 101630
09:00+19ссз23375 0.0 1016686
12:00+22сз24250 0.0 10141636
15:00+24сз572255 0.0 10122428
18:00+23сз343097 0.0 1011452
21:00+17юз1141100 0.0 101211
9 мая, вс
вс900:00+17вюв1239100 0.0 101211
03:00+16вюв224399 0.0 101111
06:00+15юв225296 0.0 101126
09:00+19ююв3438100 0.0 1010620
12:00+23ю453492 0.0 10091533
15:00+25з382653 0.0 10053156
18:00+17зсз8135157 2.1 1010880
21:00+12сз817400 2.2 1012785
10 мая, пн
пн1000:00+7сз5115033 0.0 1014631
03:00+6ссз6105362 0.0 1015643
06:00+5ссз6105079 0.0 1018697
09:00+9ссз68355 0.0 1016810
12:00+14ссз67250 0.0 10141009
15:00+16ссз67260 0.0 10121166
18:00+15сз57270 0.0 10101052
21:00+10сз44350 0.0 101264
11 мая, вт
вт1100:00+8сз44460 0.0 101375
03:00+6сз45510 0.0 101382
06:00+5ссз55600 0.0 1015145
09:00+11ссз44420 0.0 1014605
12:00+15ссз21290 0.0 10121016
15:00+19сз23210 0.0 10111612
18:00+18с22220 0.0 10101171
21:00+12ссз21320 0.0 101210
12 мая, ср
ср1200:00+11с11320 0.0 101210
03:00+9св11330 0.0 101210
06:00+11всв11380 0.0 101310
09:00+18юв22250 0.0 1013739
12:00+21ю47230 0.0 10121984
15:00+23ююз56200 0.0 10112411
18:00+22ююз34240 0.0 1011809
21:00+16вюв22350 0.0 101211